Regional Weather Roundup
Issued by NWS Green Bay, WI

Home | Current Version | Previous Version | Graphics & Text | Print | Product List | Glossary Off
Versions: 1 2 3 4 5 6 7 8 9 10 11 12 13 14 15 16 17 18 19 20 21 22 23 24 25 26 27 28 29 30 31 32 33 34 35 36 37 38 39 40 41 42 43 44 45 46 47 48 49 50

000
ASUS43 KGRB 271300
RWRGRB

NORTH-CENTRAL AND NORTHEAST WISCONSIN REGIONAL WEATHER ROUNDUP
NATIONAL WEATHER SERVICE GREEN BAY WI
800 AM CDT MON JUL 27 2015

WIZ005-009-010>012-018-019-271400-
NORTH CENTRAL WISCONSIN

CITY           SKY/WX    TMP DP  RH WIND       PRES   REMARKS
IRONWOOD       SUNNY     70  63  78 CALM      30.01R
MANITOWISH WTR NOT AVBL
ARBOR VITAE    NOT AVBL
EAGLE RIVER    NOT AVBL
LAND O LAKES   NOT AVBL
RHINELANDER    SUNNY     68  61  78 CALM      30.07R
PHILLIPS       NOT AVBL
ANTIGO         NOT AVBL
TOMAHAWK       NOT AVBL
MERRILL        NOT AVBL
$$

WIZ013-073-271400-
NORTHEAST WISCONSIN

CITY           SKY/WX    TMP DP  RH WIND       PRES   REMARKS
IRON MOUNTAIN  MOSUNNY   69  60  73 CALM      30.03S
MARINETTE      SUNNY     70  63  78 CALM      30.03R
$$

WIZ017-030-035>037-045-271400-
CENTRAL WISCONSIN

CITY           SKY/WX    TMP DP  RH WIND       PRES   REMARKS
MEDFORD        NOT AVBL
WAUSAU         SUNNY     67  59  75 CALM      30.04R
MOSINEE        SUNNY     64  61  88 VRB3      30.06R
MARSHFIELD     MOSUNNY   66  60  81 E3        30.05R
WISC RAPIDS    MOSUNNY   69  59  70 SE3       30.06R
STEVENS POINT  NOT AVBL
WAUPACA        NOT AVBL
SHAWANO        NOT AVBL
CLINTONVILLE   NOT AVBL
$$

WIZ038-039-048-051-271400-
FOX VALLEY

CITY           SKY/WX    TMP DP  RH WIND       PRES   REMARKS
NWS GREEN BAY  MOSUNNY   72  65  78 CALM      30.04R
APPLETON       MOSUNNY   70  61  73 VRB5      30.05R
OSHKOSH        SUNNY     73  61  65 CALM      30.03R
FOND DU LAC    SUNNY     71  60  68 CALM      30.04R
$$

WIZ022-050-052-271400-
EAST CENTRAL WISCONSIN

CITY           SKY/WX    TMP DP  RH WIND       PRES   REMARKS
STURGEON BAY   SUNNY     73  64  73 NW3       30.06R
MANITOWOC      NOT AVBL
SHEBOYGAN      SUNNY     72  59  63 CALM      30.04R
$$

LMZ563-521-522-541>543-271400-
LAKESHORE

STATION/POSITION TIME  TEMP    WIND        PRES    VSBY  WAVE
                       AIR SEA DIR/SP/G                  HT/PER
                 (UTC) (F)     (DEG/KT/KT) (MB)    (MI)  (FT/S)
SHEBOYGAN LKSHOR 1200   68      10/  4/  4 1016.8R
KEWAUNEE LKSHORE 1200   65     300/  4/  5 1016.2R
ALGOMA MARINA    1242             CALM       N/A
TWO RIVERS CG    1218   69                 1022.6      6   1
NORTHPORT PIER   1200   72     290/  4/  5 1016.6R
N MID LAKE BUOY  1150   70 66  250/  8/  8 1015.9R         0
STURGEON BAY CG  1218   66     310/  2     1016.5      6   2
CHAMBERS ISLAND  1200   70     150/  2/  2 1016.6R
MENOMINEE LKSHOR 1200   69      CALM  /  1 1017.4R
$$


USA.gov is the U.S. government's official web portal to all federal, state and local government web resources and services.